Time,TemperatureF,DewpointF,PressureIn,WindDirection,WindDirectionDegrees,WindSpeedMPH,WindSpeedGustMPH,Humidity,HourlyPrecipIn,Conditions,Clouds,dailyrainin,SolarRadiationWatts/m^2,SoftwareType,DateUTC
2013-02-12 00:02:00,38.6,31.0,30.23,NW,314,0.0,3.0,74,0.00,,,0.00,0,HR-IXPWINDi_r2_v1.2.,2013-02-12 08:02:00,
2013-02-12 00:07:00,38.1,30.9,30.23,NW,314,1.0,1.0,75,0.00,,,0.00,0,HR-IXPWINDi_r2_v1.2.,2013-02-12 08:07:00,
2013-02-12 00:12:00,37.4,30.5,30.23,NW,314,0.0,1.0,76,0.00,,,0.00,0,HR-IXPWINDi_r2_v1.2.,2013-02-12 08:12:00,
2013-02-12 00:17:00,36.6,30.7,30.23,NW,314,0.0,1.0,79,0.00,,,0.00,0,HR-IXPWINDi_r2_v1.2.,2013-02-12 08:17:00,
2013-02-12 00:22:00,36.3,31.0,30.23,NW,314,0.0,1.0,81,0.00,,,0.00,0,HR-IXPWINDi_r2_v1.2.,2013-02-12 08:22:00,
2013-02-12 00:27:00,35.9,30.9,30.24,NW,314,1.0,1.0,82,0.00,,,0.00,0,HR-IXPWINDi_r2_v1.2.,2013-02-12 08:27:00,
2013-02-12 00:32:00,36.0,31.0,30.24,NW,314,2.0,2.0,82,0.00,,,0.00,0,HR-IXPWINDi_r2_v1.2.,2013-02-12 08:32:00,
2013-02-12 00:37:00,35.9,31.2,30.24,NW,314,1.0,2.0,83,0.00,,,0.00,0,HR-IXPWINDi_r2_v1.2.,2013-02-12 08:37:00,
2013-02-12 00:42:00,35.6,31.2,30.24,NW,314,0.0,2.0,84,0.00,,,0.00,0,HR-IXPWINDi_r2_v1.2.,2013-02-12 08:42:00,
2013-02-12 00:48:00,35.3,30.9,30.24,NW,314,1.0,2.0,84,0.00,,,0.00,0,HR-IXPWINDi_r2_v1.2.,2013-02-12 08:48:00,
2013-02-12 00:53:00,35.3,31.2,30.24,NW,314,1.0,2.0,85,0.00,,,0.00,0,HR-IXPWINDi_r2_v1.2.,2013-02-12 08:53:00,
2013-02-12 00:58:00,35.3,31.5,30.24,NW,314,0.0,2.0,86,0.00,,,0.00,0,HR-IXPWINDi_r2_v1.2.,2013-02-12 08:58:00,
2013-02-12 01:03:00,35.1,31.3,30.24,NW,314,0.0,2.0,86,0.00,,,0.00,0,HR-IXPWINDi_r2_v1.2.,2013-02-12 09:03:00,
2013-02-12 01:09:00,34.7,30.9,30.24,NW,314,0.0,2.0,86,0.00,,,0.00,0,HR-IXPWINDi_r2_v1.2.,2013-02-12 09:09:00,
2013-02-12 01:14:00,34.5,30.7,30.24,NW,314,0.0,2.0,86,0.00,,,0.00,0,HR-IXPWINDi_r2_v1.2.,2013-02-12 09:14:00,
2013-02-12 01:19:00,34.4,30.9,30.24,NW,314,0.0,2.0,87,0.00,,,0.00,0,HR-IXPWINDi_r2_v1.2.,2013-02-12 09:19:00,
2013-02-12 01:24:00,34.1,30.3,30.24,NW,314,1.0,1.0,86,0.00,,,0.00,0,HR-IXPWINDi_r2_v1.2.,2013-02-12 09:24:00,
2013-02-12 01:29:00,33.6,30.1,30.24,NW,314,1.0,2.0,87,0.00,,,0.00,0,HR-IXPWINDi_r2_v1.2.,2013-02-12 09:29:00,
2013-02-12 01:35:00,33.7,30.2,30.24,NW,314,0.0,2.0,87,0.00,,,0.00,0,HR-IXPWINDi_r2_v1.2.,2013-02-12 09:35:00,
2013-02-12 01:40:00,33.8,30.6,30.24,NW,314,1.0,2.0,88,0.00,,,0.00,0,HR-IXPWINDi_r2_v1.2.,2013-02-12 09:40:00,
2013-02-12 01:45:00,34.1,30.9,30.24,NW,314,0.0,2.0,88,0.00,,,0.00,0,HR-IXPWINDi_r2_v1.2.,2013-02-12 09:45:00,
2013-02-12 01:50:00,34.2,30.7,30.24,NW,314,0.0,2.0,87,0.00,,,0.00,0,HR-IXPWINDi_r2_v1.2.,2013-02-12 09:50:00,
2013-02-12 01:55:00,34.3,30.5,30.24,NW,314,0.0,2.0,86,0.00,,,0.00,0,HR-IXPWINDi_r2_v1.2.,2013-02-12 09:55:00,
2013-02-12 02:00:00,33.9,30.1,30.24,NW,314,0.0,2.0,86,0.00,,,0.00,0,HR-IXPWINDi_r2_v1.2.,2013-02-12 10:00:00,
2013-02-12 02:05:00,33.9,30.1,30.24,NW,314,0.0,1.0,86,0.00,,,0.00,0,HR-IXPWINDi_r2_v1.2.,2013-02-12 10:05:00,
2013-02-12 02:10:00,33.7,29.6,30.24,NW,314,0.0,1.0,85,0.00,,,0.00,0,HR-IXPWINDi_r2_v1.2.,2013-02-12 10:10:00,
2013-02-12 02:16:00,33.1,29.1,30.24,NW,314,1.0,2.0,85,0.00,,,0.00,0,HR-IXPWINDi_r2_v1.2.,2013-02-12 10:16:00,
2013-02-12 02:21:00,32.9,29.2,30.24,NW,314,0.0,2.0,86,0.00,,,0.00,0,HR-IXPWINDi_r2_v1.2.,2013-02-12 10:21:00,
2013-02-12 02:26:00,32.8,29.3,30.24,NW,314,2.0,2.0,87,0.00,,,0.00,0,HR-IXPWINDi_r2_v1.2.,2013-02-12 10:26:00,
2013-02-12 02:31:00,32.7,29.5,30.24,NW,314,1.0,2.0,88,0.00,,,0.00,0,HR-IXPWINDi_r2_v1.2.,2013-02-12 10:31:00,
2013-02-12 02:36:00,32.5,29.3,30.24,NW,314,1.0,2.0,88,0.00,,,0.00,0,HR-IXPWINDi_r2_v1.2.,2013-02-12 10:36:00,
2013-02-12 02:42:00,32.7,29.8,30.24,NW,314,2.0,3.0,89,0.00,,,0.00,0,HR-IXPWINDi_r2_v1.2.,2013-02-12 10:42:00,
2013-02-12 02:47:00,32.8,29.6,30.24,NW,314,1.0,3.0,88,0.00,,,0.00,0,HR-IXPWINDi_r2_v1.2.,2013-02-12 10:47:00,
2013-02-12 02:52:00,32.9,29.7,30.24,NW,314,1.0,3.0,88,0.00,,,0.00,0,HR-IXPWINDi_r2_v1.2.,2013-02-12 10:52:00,
2013-02-12 02:57:00,32.9,29.7,30.24,NW,314,2.0,2.0,88,0.00,,,0.00,0,HR-IXPWINDi_r2_v1.2.,2013-02-12 10:57:00,
2013-02-12 03:02:00,32.7,29.5,30.24,NW,314,0.0,2.0,88,0.00,,,0.00,0,HR-IXPWINDi_r2_v1.2.,2013-02-12 11:02:00,
2013-02-12 03:07:00,32.2,28.7,30.24,NW,314,0.0,2.0,87,0.00,,,0.00,0,HR-IXPWINDi_r2_v1.2.,2013-02-12 11:07:00,
2013-02-12 03:12:00,32.0,28.8,30.24,NW,314,0.0,2.0,88,0.00,,,0.00,0,HR-IXPWINDi_r2_v1.2.,2013-02-12 11:12:00,
2013-02-12 03:17:00,32.3,29.1,30.25,NW,314,1.0,2.0,88,0.00,,,0.00,0,HR-IXPWINDi_r2_v1.2.,2013-02-12 11:17:00,
2013-02-12 03:23:00,32.5,29.0,30.25,NW,314,0.0,2.0,87,0.00,,,0.00,0,HR-IXPWINDi_r2_v1.2.,2013-02-12 11:23:00,
2013-02-12 03:28:00,32.6,29.1,30.25,NW,314,1.0,2.0,87,0.00,,,0.00,0,HR-IXPWINDi_r2_v1.2.,2013-02-12 11:28:00,
2013-02-12 03:33:00,32.5,28.8,30.25,NW,314,2.0,2.0,86,0.00,,,0.00,0,HR-IXPWINDi_r2_v1.2.,2013-02-12 11:33:00,
2013-02-12 03:38:00,32.1,28.4,30.25,NW,315,2.0,3.0,86,0.00,,,0.00,0,HR-IXPWINDi_r2_v1.2.,2013-02-12 11:38:00,
2013-02-12 03:43:00,32.0,28.5,30.25,NW,315,1.0,3.0,87,0.00,,,0.00,0,HR-IXPWINDi_r2_v1.2.,2013-02-12 11:43:00,
2013-02-12 03:48:00,31.8,28.4,30.25,NW,315,2.0,2.0,87,0.00,,,0.00,0,HR-IXPWINDi_r2_v1.2.,2013-02-12 11:48:00,
2013-02-12 03:53:00,32.0,28.5,30.25,NW,315,1.0,2.0,87,0.00,,,0.00,0,HR-IXPWINDi_r2_v1.2.,2013-02-12 11:53:00,
2013-02-12 03:59:00,32.2,28.7,30.25,NW,315,0.0,2.0,87,0.00,,,0.00,0,HR-IXPWINDi_r2_v1.2.,2013-02-12 11:59:00,
2013-02-12 04:04:00,32.4,28.7,30.25,NW,315,1.0,2.0,86,0.00,,,0.00,0,HR-IXPWINDi_r2_v1.2.,2013-02-12 12:04:00,
2013-02-12 04:09:00,32.3,28.3,30.25,NW,315,1.0,2.0,85,0.00,,,0.00,0,HR-IXPWINDi_r2_v1.2.,2013-02-12 12:09:00,
2013-02-12 04:14:00,32.5,28.5,30.25,NW,315,0.0,2.0,85,0.00,,,0.00,0,HR-IXPWINDi_r2_v1.2.,2013-02-12 12:14:00,
2013-02-12 04:19:00,32.3,28.3,30.26,NW,315,0.0,2.0,85,0.00,,,0.00,0,HR-IXPWINDi_r2_v1.2.,2013-02-12 12:19:00,
2013-02-12 04:25:00,32.4,28.4,30.26,NW,315,1.0,2.0,85,0.00,,,0.00,0,HR-IXPWINDi_r2_v1.2.,2013-02-12 12:25:00,
2013-02-12 04:30:00,32.3,28.3,30.26,NW,315,0.0,2.0,85,0.00,,,0.00,0,HR-IXPWINDi_r2_v1.2.,2013-02-12 12:30:00,
2013-02-12 04:35:00,32.1,28.1,30.26,NW,315,0.0,2.0,85,0.00,,,0.00,0,HR-IXPWINDi_r2_v1.2.,2013-02-12 12:35:00,
2013-02-12 04:40:00,32.1,28.1,30.26,NW,315,0.0,2.0,85,0.00,,,0.00,0,HR-IXPWINDi_r2_v1.2.,2013-02-12 12:40:00,
2013-02-12 04:46:00,31.8,28.1,30.26,NW,315,1.0,2.0,86,0.00,,,0.00,0,HR-IXPWINDi_r2_v1.2.,2013-02-12 12:46:00,
2013-02-12 04:51:00,31.9,28.2,30.26,NW,315,2.0,2.0,86,0.00,,,0.00,0,HR-IXPWINDi_r2_v1.2.,2013-02-12 12:51:00,
2013-02-12 04:56:00,31.7,28.0,30.27,NW,315,0.0,2.0,86,0.00,,,0.00,0,HR-IXPWINDi_r2_v1.2.,2013-02-12 12:56:00,
2013-02-12 05:01:00,32.0,28.3,30.27,NW,315,1.0,2.0,86,0.00,,,0.00,0,HR-IXPWINDi_r2_v1.2.,2013-02-12 13:01:00,
2013-02-12 05:06:00,32.1,28.4,30.27,NW,315,1.0,2.0,86,0.00,,,0.00,0,HR-IXPWINDi_r2_v1.2.,2013-02-12 13:06:00,
2013-02-12 05:11:00,31.8,28.1,30.27,NW,315,1.0,2.0,86,0.00,,,0.00,0,HR-IXPWINDi_r2_v1.2.,2013-02-12 13:11:00,
2013-02-12 05:17:00,31.5,27.8,30.27,NW,315,0.0,2.0,86,0.00,,,0.00,0,HR-IXPWINDi_r2_v1.2.,2013-02-12 13:17:00,
2013-02-12 05:22:00,31.6,28.2,30.27,NW,315,1.0,2.0,87,0.00,,,0.00,0,HR-IXPWINDi_r2_v1.2.,2013-02-12 13:22:00,
2013-02-12 05:27:00,31.4,27.7,30.27,NW,315,1.0,2.0,86,0.00,,,0.00,0,HR-IXPWINDi_r2_v1.2.,2013-02-12 13:27:00,
2013-02-12 05:32:00,31.7,28.3,30.28,NW,315,0.0,2.0,87,0.00,,,0.00,0,HR-IXPWINDi_r2_v1.2.,2013-02-12 13:32:00,
2013-02-12 05:38:00,31.9,28.2,30.28,NW,315,2.0,2.0,86,0.00,,,0.00,0,HR-IXPWINDi_r2_v1.2.,2013-02-12 13:38:00,
2013-02-12 05:43:00,32.0,28.0,30.28,NW,315,0.0,2.0,85,0.00,,,0.00,0,HR-IXPWINDi_r2_v1.2.,2013-02-12 13:43:00,
2013-02-12 05:48:00,31.8,27.8,30.28,NW,315,0.0,1.0,85,0.00,,,0.00,0,HR-IXPWINDi_r2_v1.2.,2013-02-12 13:48:00,
2013-02-12 05:53:00,31.6,27.6,30.28,NW,315,0.0,2.0,85,0.00,,,0.00,0,HR-IXPWINDi_r2_v1.2.,2013-02-12 13:53:00,
2013-02-12 05:58:00,31.7,28.0,30.29,NW,315,1.0,2.0,86,0.00,,,0.00,0,HR-IXPWINDi_r2_v1.2.,2013-02-12 13:58:00,
2013-02-12 06:03:00,31.7,28.0,30.28,NW,315,2.0,2.0,86,0.00,,,0.00,0,HR-IXPWINDi_r2_v1.2.,2013-02-12 14:03:00,
2013-02-12 06:09:00,31.8,28.1,30.28,NW,315,1.0,2.0,86,0.00,,,0.00,0,HR-IXPWINDi_r2_v1.2.,2013-02-12 14:09:00,
2013-02-12 06:14:00,31.9,28.2,30.29,NW,315,2.0,2.0,86,0.00,,,0.00,0,HR-IXPWINDi_r2_v1.2.,2013-02-12 14:14:00,
2013-02-12 06:19:00,31.9,27.9,30.29,NW,315,1.0,3.0,85,0.00,,,0.00,0,HR-IXPWINDi_r2_v1.2.,2013-02-12 14:19:00,
2013-02-12 06:24:00,32.0,28.0,30.29,NW,315,2.0,3.0,85,0.00,,,0.00,0,HR-IXPWINDi_r2_v1.2.,2013-02-12 14:24:00,
2013-02-12 06:29:00,31.9,27.9,30.29,NW,315,0.0,3.0,85,0.00,,,0.00,0,HR-IXPWINDi_r2_v1.2.,2013-02-12 14:29:00,
2013-02-12 06:35:00,31.5,27.5,30.30,NW,315,1.0,2.0,85,0.00,,,0.00,0,HR-IXPWINDi_r2_v1.2.,2013-02-12 14:35:00,
2013-02-12 06:40:00,31.2,27.5,30.30,NW,315,1.0,2.0,86,0.00,,,0.00,0,HR-IXPWINDi_r2_v1.2.,2013-02-12 14:40:00,
2013-02-12 06:45:00,31.2,27.8,30.30,NW,315,0.0,2.0,87,0.00,,,0.00,5,HR-IXPWINDi_r2_v1.2.,2013-02-12 14:45:00,
2013-02-12 06:50:00,31.4,28.0,30.30,NW,315,2.0,2.0,87,0.00,,,0.00,7,HR-IXPWINDi_r2_v1.2.,2013-02-12 14:50:00,
2013-02-12 06:55:00,31.8,28.1,30.31,NW,315,1.0,2.0,86,0.00,,,0.00,9,HR-IXPWINDi_r2_v1.2.,2013-02-12 14:55:00,
2013-02-12 07:01:00,31.5,27.8,30.31,NW,315,0.0,2.0,86,0.00,,,0.00,12,HR-IXPWINDi_r2_v1.2.,2013-02-12 15:01:00,
2013-02-12 07:06:00,31.6,28.2,30.31,NW,315,1.0,2.0,87,0.00,,,0.00,14,HR-IXPWINDi_r2_v1.2.,2013-02-12 15:06:00,
2013-02-12 07:11:00,31.6,28.2,30.32,NW,315,0.0,2.0,87,0.00,,,0.00,19,HR-IXPWINDi_r2_v1.2.,2013-02-12 15:11:00,
2013-02-12 07:16:00,31.9,28.5,30.32,NW,315,1.0,2.0,87,0.00,,,0.00,30,HR-IXPWINDi_r2_v1.2.,2013-02-12 15:16:00,
2013-02-12 07:22:00,32.3,28.8,30.32,NW,315,0.0,2.0,87,0.00,,,0.00,33,HR-IXPWINDi_r2_v1.2.,2013-02-12 15:22:00,
2013-02-12 07:27:00,33.2,29.4,30.32,NW,315,2.0,2.0,86,0.00,,,0.00,35,HR-IXPWINDi_r2_v1.2.,2013-02-12 15:27:00,
2013-02-12 07:32:00,34.5,30.4,30.32,NW,315,0.0,2.0,85,0.00,,,0.00,40,HR-IXPWINDi_r2_v1.2.,2013-02-12 15:32:00,
2013-02-12 07:37:00,35.6,30.6,30.32,NW,315,0.0,2.0,82,0.00,,,0.00,54,HR-IXPWINDi_r2_v1.2.,2013-02-12 15:37:00,
2013-02-12 07:43:00,36.6,31.0,30.32,NW,315,0.0,1.0,80,0.00,,,0.00,51,HR-IXPWINDi_r2_v1.2.,2013-02-12 15:43:00,
2013-02-12 07:48:00,37.6,31.3,30.33,NW,315,0.0,1.0,78,0.00,,,0.00,70,HR-IXPWINDi_r2_v1.2.,2013-02-12 15:48:00,
2013-02-12 07:53:00,38.7,31.4,30.33,NW,315,0.0,1.0,75,0.00,,,0.00,49,HR-IXPWINDi_r2_v1.2.,2013-02-12 15:53:00,
2013-02-12 07:58:00,39.9,31.6,30.33,NW,315,0.0,2.0,72,0.00,,,0.00,49,HR-IXPWINDi_r2_v1.2.,2013-02-12 15:58:00,
2013-02-12 08:03:00,40.6,31.2,30.33,NW,315,0.0,2.0,69,0.00,,,0.00,76,HR-IXPWINDi_r2_v1.2.,2013-02-12 16:03:00,
2013-02-12 08:08:00,41.3,31.5,30.33,South,169,2.0,2.0,68,0.00,,,0.00,58,HR-IXPWINDi_r2_v1.2.,2013-02-12 16:08:00,
2013-02-12 08:13:00,42.0,31.4,30.33,South,169,0.0,2.0,66,0.00,,,0.00,49,HR-IXPWINDi_r2_v1.2.,2013-02-12 16:13:00,
2013-02-12 08:19:00,42.4,31.4,30.33,South,169,1.0,3.0,65,0.00,,,0.00,49,HR-IXPWINDi_r2_v1.2.,2013-02-12 16:19:00,
2013-02-12 08:24:00,43.0,29.6,30.34,SSE,161,1.0,3.0,59,0.00,,,0.00,60,HR-IXPWINDi_r2_v1.2.,2013-02-12 16:24:00,
2013-02-12 08:29:00,43.8,30.8,30.34,SSE,162,0.0,3.0,60,0.00,,,0.00,56,HR-IXPWINDi_r2_v1.2.,2013-02-12 16:29:00,
2013-02-12 08:34:00,44.5,33.4,30.34,SSE,150,0.0,3.0,65,0.00,,,0.00,84,HR-IXPWINDi_r2_v1.2.,2013-02-12 16:34:00,
2013-02-12 08:39:00,44.7,31.6,30.34,SSE,163,0.0,3.0,60,0.00,,,0.00,53,HR-IXPWINDi_r2_v1.2.,2013-02-12 16:39:00,
2013-02-12 08:44:00,45.4,31.0,30.34,SSE,163,2.0,3.0,57,0.00,,,0.00,53,HR-IXPWINDi_r2_v1.2.,2013-02-12 16:44:00,
2013-02-12 08:50:00,45.9,30.6,30.34,SSE,163,0.0,3.0,55,0.00,,,0.00,53,HR-IXPWINDi_r2_v1.2.,2013-02-12 16:50:00,
2013-02-12 08:55:00,47.0,33.8,30.33,SSE,155,0.0,3.0,60,0.00,,,0.00,56,HR-IXPWINDi_r2_v1.2.,2013-02-12 16:55:00,
2013-02-12 09:00:00,47.4,33.3,30.33,SSE,163,1.0,3.0,58,0.00,,,0.00,104,HR-IXPWINDi_r2_v1.2.,2013-02-12 17:00:00,
2013-02-12 09:05:00,47.9,31.6,30.34,South,175,1.0,3.0,53,0.00,,,0.00,70,HR-IXPWINDi_r2_v1.2.,2013-02-12 17:05:00,
2013-02-12 09:10:00,48.6,34.0,30.34,SSE,147,0.0,3.0,57,0.00,,,0.00,58,HR-IXPWINDi_r2_v1.2.,2013-02-12 17:10:00,
2013-02-12 09:15:00,49.2,34.1,30.34,ESE,104,1.0,3.0,56,0.00,,,0.00,84,HR-IXPWINDi_r2_v1.2.,2013-02-12 17:15:00,
2013-02-12 09:20:00,49.8,32.4,30.34,SSW,198,0.0,3.0,51,0.00,,,0.00,70,HR-IXPWINDi_r2_v1.2.,2013-02-12 17:20:00,
2013-02-12 09:25:00,50.3,31.8,30.34,SSE,165,0.0,3.0,49,0.00,,,0.00,54,HR-IXPWINDi_r2_v1.2.,2013-02-12 17:25:00,
2013-02-12 09:30:00,50.6,30.6,30.33,South,178,1.0,3.0,46,0.00,,,0.00,53,HR-IXPWINDi_r2_v1.2.,2013-02-12 17:30:00,
2013-02-12 09:36:00,51.2,31.6,30.33,South,171,0.0,3.0,47,0.00,,,0.00,95,HR-IXPWINDi_r2_v1.2.,2013-02-12 17:36:00,
2013-02-12 09:41:00,51.8,28.8,30.33,South,179,1.0,4.0,41,0.00,,,0.00,62,HR-IXPWINDi_r2_v1.2.,2013-02-12 17:41:00,
2013-02-12 09:46:00,52.4,30.0,30.33,South,180,1.0,4.0,42,0.00,,,0.00,70,HR-IXPWINDi_r2_v1.2.,2013-02-12 17:46:00,
2013-02-12 09:51:00,53.2,29.5,30.33,South,171,1.0,4.0,40,0.00,,,0.00,58,HR-IXPWINDi_r2_v1.2.,2013-02-12 17:51:00,
2013-02-12 09:57:00,53.8,29.4,30.33,South,171,0.0,3.0,39,0.00,,,0.00,54,HR-IXPWINDi_r2_v1.2.,2013-02-12 17:57:00,
2013-02-12 10:02:00,54.6,28.8,30.33,South,182,0.0,4.0,37,0.00,,,0.00,54,HR-IXPWINDi_r2_v1.2.,2013-02-12 18:02:00,
2013-02-12 10:07:00,55.0,29.2,30.33,SW,217,2.0,4.0,37,0.00,,,0.00,54,HR-IXPWINDi_r2_v1.2.,2013-02-12 18:07:00,
2013-02-12 10:12:00,55.7,28.4,30.33,South,188,4.0,4.0,35,0.00,,,0.00,58,HR-IXPWINDi_r2_v1.2.,2013-02-12 18:12:00,
2013-02-12 10:17:00,56.3,29.0,30.33,South,179,2.0,6.0,35,0.00,,,0.00,60,HR-IXPWINDi_r2_v1.2.,2013-02-12 18:17:00,
2013-02-12 10:23:00,56.2,30.3,30.33,SSE,162,0.0,6.0,37,0.00,,,0.00,67,HR-IXPWINDi_r2_v1.2.,2013-02-12 18:23:00,
2013-02-12 10:28:00,56.5,28.4,30.33,SSE,168,1.0,5.0,34,0.00,,,0.00,190,HR-IXPWINDi_r2_v1.2.,2013-02-12 18:28:00,
2013-02-12 10:33:00,57.2,26.8,30.33,South,186,4.0,6.0,31,0.00,,,0.00,148,HR-IXPWINDi_r2_v1.2.,2013-02-12 18:33:00,
2013-02-12 10:38:00,58.2,28.5,30.32,SSW,198,3.0,6.0,32,0.00,,,0.00,206,HR-IXPWINDi_r2_v1.2.,2013-02-12 18:38:00,
2013-02-12 10:43:00,59.1,29.3,30.32,SSE,164,4.0,6.0,32,0.00,,,0.00,459,HR-IXPWINDi_r2_v1.2.,2013-02-12 18:43:00,
2013-02-12 10:49:00,59.8,28.3,30.32,South,189,3.0,6.0,30,0.00,,,0.00,531,HR-IXPWINDi_r2_v1.2.,2013-02-12 18:49:00,
2013-02-12 10:54:00,60.1,27.7,30.32,South,185,1.0,6.0,29,0.00,,,0.00,570,HR-IXPWINDi_r2_v1.2.,2013-02-12 18:54:00,
2013-02-12 10:59:00,61.0,29.3,30.32,SE,140,1.0,5.0,30,0.00,,,0.00,606,HR-IXPWINDi_r2_v1.2.,2013-02-12 18:59:00,
2013-02-12 11:04:00,61.1,27.7,30.31,SSE,160,2.0,4.0,28,0.00,,,0.00,638,HR-IXPWINDi_r2_v1.2.,2013-02-12 19:04:00,
2013-02-12 11:09:00,62.0,25.8,30.31,South,188,0.0,5.0,25,0.00,,,0.00,664,HR-IXPWINDi_r2_v1.2.,2013-02-12 19:09:00,
2013-02-12 11:14:00,63.0,28.5,30.31,South,190,3.0,5.0,27,0.00,,,0.00,673,HR-IXPWINDi_r2_v1.2.,2013-02-12 19:14:00,
2013-02-12 11:20:00,64.3,27.7,30.30,SSE,155,0.0,6.0,25,0.00,,,0.00,652,HR-IXPWINDi_r2_v1.2.,2013-02-12 19:20:00,
2013-02-12 11:25:00,63.6,25.1,30.30,SE,132,1.0,6.0,23,0.00,,,0.00,619,HR-IXPWINDi_r2_v1.2.,2013-02-12 19:25:00,
2013-02-12 11:30:00,64.1,25.5,30.30,South,171,0.0,6.0,23,0.00,,,0.00,577,HR-IXPWINDi_r2_v1.2.,2013-02-12 19:30:00,
2013-02-12 11:35:00,63.4,25.0,30.30,SSE,153,1.0,6.0,23,0.00,,,0.00,548,HR-IXPWINDi_r2_v1.2.,2013-02-12 19:35:00,
2013-02-12 11:40:00,64.0,24.4,30.29,SSW,201,1.0,7.0,22,0.00,,,0.00,541,HR-IXPWINDi_r2_v1.2.,2013-02-12 19:40:00,
2013-02-12 11:46:00,63.8,25.3,30.29,South,185,2.0,7.0,23,0.00,,,0.00,554,HR-IXPWINDi_r2_v1.2.,2013-02-12 19:46:00,
2013-02-12 11:51:00,65.1,27.4,30.29,SE,140,1.0,5.0,24,0.00,,,0.00,584,HR-IXPWINDi_r2_v1.2.,2013-02-12 19:51:00,
2013-02-12 11:56:00,65.3,22.0,30.29,SSW,199,0.0,4.0,19,0.00,,,0.00,629,HR-IXPWINDi_r2_v1.2.,2013-02-12 19:56:00,
2013-02-12 12:01:00,64.6,24.9,30.28,SE,132,1.0,7.0,22,0.00,,,0.00,670,HR-IXPWINDi_r2_v1.2.,2013-02-12 20:01:00,
2013-02-12 12:07:00,65.4,29.6,30.28,South,185,5.0,10.0,26,0.00,,,0.00,701,HR-IXPWINDi_r2_v1.2.,2013-02-12 20:07:00,
2013-02-12 12:12:00,65.0,28.3,30.28,SSE,165,3.0,10.0,25,0.00,,,0.00,710,HR-IXPWINDi_r2_v1.2.,2013-02-12 20:12:00,
2013-02-12 12:17:00,65.4,33.1,30.28,South,183,4.0,9.0,30,0.00,,,0.00,705,HR-IXPWINDi_r2_v1.2.,2013-02-12 20:17:00,
2013-02-12 12:23:00,64.5,31.5,30.27,South,184,1.0,9.0,29,0.00,,,0.00,705,HR-IXPWINDi_r2_v1.2.,2013-02-12 20:23:00,
2013-02-12 12:28:00,63.8,31.8,30.27,South,173,5.0,9.0,30,0.00,,,0.00,701,HR-IXPWINDi_r2_v1.2.,2013-02-12 20:28:00,
2013-02-12 12:33:00,64.7,33.3,30.27,SSW,206,4.0,8.0,31,0.00,,,0.00,694,HR-IXPWINDi_r2_v1.2.,2013-02-12 20:33:00,
2013-02-12 12:38:00,63.9,34.2,30.27,South,191,4.0,9.0,33,0.00,,,0.00,686,HR-IXPWINDi_r2_v1.2.,2013-02-12 20:38:00,
2013-02-12 12:43:00,64.2,32.1,30.27,South,190,7.0,9.0,30,0.00,,,0.00,677,HR-IXPWINDi_r2_v1.2.,2013-02-12 20:43:00,
2013-02-12 12:48:00,64.5,34.7,30.26,SSW,196,5.0,9.0,33,0.00,,,0.00,670,HR-IXPWINDi_r2_v1.2.,2013-02-12 20:48:00,
2013-02-12 12:53:00,64.8,37.9,30.26,South,178,2.0,9.0,37,0.00,,,0.00,666,HR-IXPWINDi_r2_v1.2.,2013-02-12 20:53:00,
2013-02-12 12:59:00,64.7,34.9,30.26,SE,130,5.0,9.0,33,0.00,,,0.00,671,HR-IXPWINDi_r2_v1.2.,2013-02-12 20:59:00,
2013-02-12 13:04:00,64.7,35.7,30.26,SSW,199,4.0,9.0,34,0.00,,,0.00,664,HR-IXPWINDi_r2_v1.2.,2013-02-12 21:04:00,
2013-02-12 13:09:00,64.2,37.4,30.25,SSW,205,3.0,9.0,37,0.00,,,0.00,635,HR-IXPWINDi_r2_v1.2.,2013-02-12 21:09:00,
2013-02-12 13:14:00,64.6,34.8,30.25,SSW,200,3.0,9.0,33,0.00,,,0.00,596,HR-IXPWINDi_r2_v1.2.,2013-02-12 21:14:00,
2013-02-12 13:20:00,63.4,35.2,30.25,SSW,194,5.0,9.0,35,0.00,,,0.00,563,HR-IXPWINDi_r2_v1.2.,2013-02-12 21:20:00,
2013-02-12 13:25:00,63.4,34.5,30.25,SSE,168,5.0,9.0,34,0.00,,,0.00,541,HR-IXPWINDi_r2_v1.2.,2013-02-12 21:25:00,
2013-02-12 13:30:00,64.2,37.4,30.25,South,174,1.0,12.0,37,0.00,,,0.00,540,HR-IXPWINDi_r2_v1.2.,2013-02-12 21:30:00,
2013-02-12 13:35:00,64.2,33.7,30.25,South,184,5.0,12.0,32,0.00,,,0.00,554,HR-IXPWINDi_r2_v1.2.,2013-02-12 21:35:00,
2013-02-12 13:40:00,64.9,35.8,30.24,South,170,5.0,9.0,34,0.00,,,0.00,575,HR-IXPWINDi_r2_v1.2.,2013-02-12 21:40:00,
2013-02-12 13:45:00,64.0,33.5,30.24,ESE,109,3.0,9.0,32,0.00,,,0.00,596,HR-IXPWINDi_r2_v1.2.,2013-02-12 21:45:00,
2013-02-12 13:50:00,65.1,36.7,30.24,South,181,5.0,9.0,35,0.00,,,0.00,603,HR-IXPWINDi_r2_v1.2.,2013-02-12 21:50:00,
2013-02-12 13:55:00,64.5,34.0,30.24,SE,139,2.0,9.0,32,0.00,,,0.00,598,HR-IXPWINDi_r2_v1.2.,2013-02-12 21:55:00,
2013-02-12 14:01:00,64.7,36.4,30.24,South,183,2.0,9.0,35,0.00,,,0.00,589,HR-IXPWINDi_r2_v1.2.,2013-02-12 22:01:00,
2013-02-12 14:06:00,65.1,37.5,30.23,ESE,119,1.0,10.0,36,0.00,,,0.00,578,HR-IXPWINDi_r2_v1.2.,2013-02-12 22:06:00,
2013-02-12 14:11:00,64.7,38.5,30.23,SSE,157,2.0,10.0,38,0.00,,,0.00,568,HR-IXPWINDi_r2_v1.2.,2013-02-12 22:11:00,
2013-02-12 14:16:00,64.5,39.6,30.23,South,178,6.0,11.0,40,0.00,,,0.00,555,HR-IXPWINDi_r2_v1.2.,2013-02-12 22:16:00,
2013-02-12 14:21:00,64.3,39.4,30.23,South,186,4.0,11.0,40,0.00,,,0.00,545,HR-IXPWINDi_r2_v1.2.,2013-02-12 22:21:00,
2013-02-12 14:27:00,65.0,40.1,30.23,SSE,159,1.0,9.0,40,0.00,,,0.00,529,HR-IXPWINDi_r2_v1.2.,2013-02-12 22:27:00,
2013-02-12 14:32:00,64.7,40.4,30.23,South,170,1.0,8.0,41,0.00,,,0.00,520,HR-IXPWINDi_r2_v1.2.,2013-02-12 22:32:00,
2013-02-12 14:37:00,64.7,39.1,30.23,SSE,167,2.0,8.0,39,0.00,,,0.00,506,HR-IXPWINDi_r2_v1.2.,2013-02-12 22:37:00,
2013-02-12 14:42:00,64.9,40.6,30.23,South,171,1.0,9.0,41,0.00,,,0.00,490,HR-IXPWINDi_r2_v1.2.,2013-02-12 22:42:00,
2013-02-12 14:47:00,64.8,40.5,30.23,SSE,164,1.0,9.0,41,0.00,,,0.00,478,HR-IXPWINDi_r2_v1.2.,2013-02-12 22:47:00,
2013-02-12 14:52:00,65.3,40.3,30.23,SSE,165,1.0,8.0,40,0.00,,,0.00,464,HR-IXPWINDi_r2_v1.2.,2013-02-12 22:52:00,
2013-02-12 14:58:00,64.9,40.6,30.23,South,191,3.0,8.0,41,0.00,,,0.00,450,HR-IXPWINDi_r2_v1.2.,2013-02-12 22:58:00,
2013-02-12 15:03:00,64.3,40.7,30.23,SSW,194,1.0,9.0,42,0.00,,,0.00,438,HR-IXPWINDi_r2_v1.2.,2013-02-12 23:03:00,
2013-02-12 15:08:00,63.9,39.7,30.23,South,170,4.0,9.0,41,0.00,,,0.00,420,HR-IXPWINDi_r2_v1.2.,2013-02-12 23:08:00,
2013-02-12 15:13:00,63.8,39.6,30.22,South,172,1.0,8.0,41,0.00,,,0.00,406,HR-IXPWINDi_r2_v1.2.,2013-02-12 23:13:00,
2013-02-12 15:18:00,63.9,40.3,30.22,South,169,5.0,8.0,42,0.00,,,0.00,390,HR-IXPWINDi_r2_v1.2.,2013-02-12 23:18:00,
2013-02-12 15:24:00,63.9,39.7,30.22,SSE,165,3.0,8.0,41,0.00,,,0.00,374,HR-IXPWINDi_r2_v1.2.,2013-02-12 23:24:00,
2013-02-12 15:29:00,63.8,40.2,30.22,South,179,2.0,8.0,42,0.00,,,0.00,359,HR-IXPWINDi_r2_v1.2.,2013-02-12 23:29:00,
2013-02-12 15:34:00,63.1,37.7,30.22,SW,225,6.0,8.0,39,0.00,,,0.00,345,HR-IXPWINDi_r2_v1.2.,2013-02-12 23:34:00,
2013-02-12 15:39:00,62.2,38.2,30.22,SSE,167,5.0,9.0,41,0.00,,,0.00,329,HR-IXPWINDi_r2_v1.2.,2013-02-12 23:39:00,
2013-02-12 15:44:00,61.8,37.2,30.22,SSE,165,4.0,9.0,40,0.00,,,0.00,309,HR-IXPWINDi_r2_v1.2.,2013-02-12 23:44:00,
2013-02-12 15:49:00,61.7,36.5,30.22,SSW,212,5.0,8.0,39,0.00,,,0.00,295,HR-IXPWINDi_r2_v1.2.,2013-02-12 23:49:00,
2013-02-12 15:55:00,61.4,36.8,30.22,SSE,166,3.0,9.0,40,0.00,,,0.00,278,HR-IXPWINDi_r2_v1.2.,2013-02-12 23:55:00,
2013-02-12 16:00:00,61.5,37.5,30.22,SSW,194,2.0,9.0,41,0.00,,,0.00,258,HR-IXPWINDi_r2_v1.2.,2013-02-13 00:00:00,
2013-02-12 16:05:00,61.1,38.4,30.22,South,184,0.0,7.0,43,0.00,,,0.00,241,HR-IXPWINDi_r2_v1.2.,2013-02-13 00:05:00,
2013-02-12 16:10:00,60.5,38.4,30.21,South,171,4.0,7.0,44,0.00,,,0.00,220,HR-IXPWINDi_r2_v1.2.,2013-02-13 00:10:00,
2013-02-12 16:15:00,59.9,37.3,30.22,SSE,155,2.0,7.0,43,0.00,,,0.00,42,HR-IXPWINDi_r2_v1.2.,2013-02-13 00:15:00,
2013-02-12 16:21:00,59.5,36.4,30.22,South,178,3.0,7.0,42,0.00,,,0.00,39,HR-IXPWINDi_r2_v1.2.,2013-02-13 00:21:00,
2013-02-12 16:26:00,58.7,36.2,30.22,South,173,1.0,6.0,43,0.00,,,0.00,33,HR-IXPWINDi_r2_v1.2.,2013-02-13 00:26:00,
2013-02-12 16:31:00,58.0,35.6,30.22,South,186,1.0,5.0,43,0.00,,,0.00,30,HR-IXPWINDi_r2_v1.2.,2013-02-13 00:31:00,
2013-02-12 16:36:00,57.7,34.7,30.21,South,182,0.0,4.0,42,0.00,,,0.00,26,HR-IXPWINDi_r2_v1.2.,2013-02-13 00:36:00,
2013-02-12 16:42:00,57.4,35.1,30.21,South,182,0.0,3.0,43,0.00,,,0.00,25,HR-IXPWINDi_r2_v1.2.,2013-02-13 00:42:00,
2013-02-12 16:47:00,57.0,35.3,30.21,SSE,167,1.0,4.0,44,0.00,,,0.00,23,HR-IXPWINDi_r2_v1.2.,2013-02-13 00:47:00,
2013-02-12 16:52:00,56.8,35.1,30.21,SSE,162,1.0,4.0,44,0.00,,,0.00,21,HR-IXPWINDi_r2_v1.2.,2013-02-13 00:52:00,
2013-02-12 16:57:00,56.5,34.8,30.21,SSE,159,1.0,4.0,44,0.00,,,0.00,19,HR-IXPWINDi_r2_v1.2.,2013-02-13 00:57:00,
2013-02-12 17:02:00,56.2,35.1,30.21,SSE,156,0.0,4.0,45,0.00,,,0.00,18,HR-IXPWINDi_r2_v1.2.,2013-02-13 01:02:00,
2013-02-12 17:07:00,55.9,34.8,30.21,SSE,167,0.0,4.0,45,0.00,,,0.00,16,HR-IXPWINDi_r2_v1.2.,2013-02-13 01:07:00,
2013-02-12 17:13:00,55.1,35.2,30.22,SSE,167,0.0,4.0,47,0.00,,,0.00,14,HR-IXPWINDi_r2_v1.2.,2013-02-13 01:13:00,
2013-02-12 17:18:00,53.9,35.1,30.21,SSE,168,1.0,1.0,49,0.00,,,0.00,12,HR-IXPWINDi_r2_v1.2.,2013-02-13 01:18:00,
2013-02-12 17:23:00,53.2,35.5,30.21,SSW,207,0.0,2.0,51,0.00,,,0.00,11,HR-IXPWINDi_r2_v1.2.,2013-02-13 01:23:00,
2013-02-12 17:28:00,52.1,35.9,30.22,SSW,207,0.0,2.0,54,0.00,,,0.00,9,HR-IXPWINDi_r2_v1.2.,2013-02-13 01:28:00,
2013-02-12 17:33:00,50.9,36.2,30.22,SSW,207,0.0,1.0,57,0.00,,,0.00,5,HR-IXPWINDi_r2_v1.2.,2013-02-13 01:33:00,
2013-02-12 17:38:00,50.2,36.4,30.22,SSW,207,0.0,1.0,59,0.00,,,0.00,0,HR-IXPWINDi_r2_v1.2.,2013-02-13 01:38:00,
2013-02-12 17:43:00,49.4,36.5,30.22,SSW,207,0.0,0.0,61,0.00,,,0.00,0,HR-IXPWINDi_r2_v1.2.,2013-02-13 01:43:00,
2013-02-12 17:48:00,48.9,35.6,30.22,SSW,207,0.0,0.0,60,0.00,,,0.00,0,HR-IXPWINDi_r2_v1.2.,2013-02-13 01:48:00,
2013-02-12 17:54:00,48.1,35.3,30.22,SSW,207,1.0,2.0,61,0.00,,,0.00,0,HR-IXPWINDi_r2_v1.2.,2013-02-13 01:54:00,
2013-02-12 17:59:00,47.3,35.7,30.22,SSW,207,0.0,2.0,64,0.00,,,0.00,0,HR-IXPWINDi_r2_v1.2.,2013-02-13 01:59:00,
2013-02-12 18:04:00,46.5,35.7,30.23,SSW,207,0.0,2.0,66,0.00,,,0.00,0,HR-IXPWINDi_r2_v1.2.,2013-02-13 02:04:00,
2013-02-12 18:09:00,46.1,35.7,30.23,SSW,207,0.0,2.0,67,0.00,,,0.00,0,HR-IXPWINDi_r2_v1.2.,2013-02-13 02:09:00,
2013-02-12 18:14:00,46.1,36.1,30.23,SSW,207,0.0,1.0,68,0.00,,,0.00,0,HR-IXPWINDi_r2_v1.2.,2013-02-13 02:14:00,
2013-02-12 18:19:00,45.5,35.9,30.23,SSW,207,1.0,2.0,69,0.00,,,0.00,0,HR-IXPWINDi_r2_v1.2.,2013-02-13 02:19:00,
2013-02-12 18:25:00,45.0,36.1,30.23,SSW,207,0.0,2.0,71,0.00,,,0.00,0,HR-IXPWINDi_r2_v1.2.,2013-02-13 02:25:00,
2013-02-12 18:30:00,44.8,35.9,30.23,SSW,207,1.0,2.0,71,0.00,,,0.00,0,HR-IXPWINDi_r2_v1.2.,2013-02-13 02:30:00,
2013-02-12 18:35:00,44.7,35.5,30.23,SSW,207,2.0,2.0,70,0.00,,,0.00,0,HR-IXPWINDi_r2_v1.2.,2013-02-13 02:35:00,
2013-02-12 18:41:00,44.2,35.7,30.24,SSW,207,0.0,2.0,72,0.00,,,0.00,0,HR-IXPWINDi_r2_v1.2.,2013-02-13 02:41:00,
2013-02-12 18:46:00,44.2,36.1,30.24,SSW,207,0.0,1.0,73,0.00,,,0.00,0,HR-IXPWINDi_r2_v1.2.,2013-02-13 02:46:00,
2013-02-12 18:51:00,43.9,35.4,30.24,SSW,209,0.0,2.0,72,0.00,,,0.00,0,HR-IXPWINDi_r2_v1.2.,2013-02-13 02:51:00,
2013-02-12 18:56:00,43.7,35.6,30.24,SSW,210,0.0,2.0,73,0.00,,,0.00,0,HR-IXPWINDi_r2_v1.2.,2013-02-13 02:56:00,
2013-02-12 19:01:00,43.1,35.3,30.24,SW,229,1.0,2.0,74,0.00,,,0.00,0,HR-IXPWINDi_r2_v1.2.,2013-02-13 03:01:00,
2013-02-12 19:06:00,43.0,35.6,30.24,SW,229,2.0,2.0,75,0.00,,,0.00,0,HR-IXPWINDi_r2_v1.2.,2013-02-13 03:06:00,
2013-02-12 19:11:00,42.9,35.5,30.24,SW,229,1.0,2.0,75,0.00,,,0.00,0,HR-IXPWINDi_r2_v1.2.,2013-02-13 03:11:00,
2013-02-12 19:17:00,42.8,35.4,30.24,SW,230,1.0,2.0,75,0.00,,,0.00,0,HR-IXPWINDi_r2_v1.2.,2013-02-13 03:17:00,
2013-02-12 19:22:00,42.4,35.3,30.25,SW,232,2.0,2.0,76,0.00,,,0.00,0,HR-IXPWINDi_r2_v1.2.,2013-02-13 03:22:00,
2013-02-12 19:27:00,42.4,35.3,30.24,WSW,245,1.0,3.0,76,0.00,,,0.00,0,HR-IXPWINDi_r2_v1.2.,2013-02-13 03:27:00,
2013-02-12 19:32:00,43.3,35.9,30.25,WNW,301,2.0,3.0,75,0.00,,,0.00,0,HR-IXPWINDi_r2_v1.2.,2013-02-13 03:32:00,
2013-02-12 19:37:00,44.1,36.0,30.25,WNW,301,0.0,3.0,73,0.00,,,0.00,0,HR-IXPWINDi_r2_v1.2.,2013-02-13 03:37:00,
2013-02-12 19:43:00,44.2,35.7,30.25,NNW,332,3.0,4.0,72,0.00,,,0.00,0,HR-IXPWINDi_r2_v1.2.,2013-02-13 03:43:00,
2013-02-12 19:48:00,44.3,35.8,30.25,NW,318,1.0,4.0,72,0.00,,,0.00,0,HR-IXPWINDi_r2_v1.2.,2013-02-13 03:48:00,
2013-02-12 19:53:00,44.0,35.5,30.25,NW,319,2.0,4.0,72,0.00,,,0.00,0,HR-IXPWINDi_r2_v1.2.,2013-02-13 03:53:00,
2013-02-12 19:58:00,43.7,35.6,30.25,NW,319,1.0,3.0,73,0.00,,,0.00,0,HR-IXPWINDi_r2_v1.2.,2013-02-13 03:58:00,
2013-02-12 20:04:00,43.6,35.8,30.25,NW,320,1.0,3.0,74,0.00,,,0.00,0,HR-IXPWINDi_r2_v1.2.,2013-02-13 04:04:00,
2013-02-12 20:09:00,43.6,35.8,30.25,NW,310,2.0,3.0,74,0.00,,,0.00,0,HR-IXPWINDi_r2_v1.2.,2013-02-13 04:09:00,
2013-02-12 20:14:00,43.7,35.9,30.25,NW,310,1.0,3.0,74,0.00,,,0.00,0,HR-IXPWINDi_r2_v1.2.,2013-02-13 04:14:00,
2013-02-12 20:19:00,43.7,35.9,30.25,NW,314,3.0,4.0,74,0.00,,,0.00,0,HR-IXPWINDi_r2_v1.2.,2013-02-13 04:19:00,
2013-02-12 20:25:00,44.0,35.9,30.25,NNW,333,2.0,4.0,73,0.00,,,0.00,0,HR-IXPWINDi_r2_v1.2.,2013-02-13 04:25:00,
2013-02-12 20:30:00,43.7,35.6,30.26,NNW,333,1.0,4.0,73,0.00,,,0.00,0,HR-IXPWINDi_r2_v1.2.,2013-02-13 04:30:00,
2013-02-12 20:35:00,43.2,35.4,30.26,NNW,329,2.0,3.0,74,0.00,,,0.00,0,HR-IXPWINDi_r2_v1.2.,2013-02-13 04:35:00,
2013-02-12 20:40:00,43.3,35.9,30.26,NW,325,3.0,4.0,75,0.00,,,0.00,0,HR-IXPWINDi_r2_v1.2.,2013-02-13 04:40:00,
2013-02-12 20:45:00,43.7,35.9,30.26,NW,320,3.0,4.0,74,0.00,,,0.00,0,HR-IXPWINDi_r2_v1.2.,2013-02-13 04:45:00,
2013-02-12 20:50:00,44.0,35.9,30.26,NW,322,3.0,4.0,73,0.00,,,0.00,0,HR-IXPWINDi_r2_v1.2.,2013-02-13 04:50:00,
2013-02-12 20:56:00,43.9,35.8,30.26,NW,318,2.0,5.0,73,0.00,,,0.00,0,HR-IXPWINDi_r2_v1.2.,2013-02-13 04:56:00,
2013-02-12 21:00:00,44.0,35.9,30.26,NNW,329,1.0,5.0,73,0.00,,,0.00,0,HR-IXPWINDi_r2_v1.2.,2013-02-13 05:00:00,
2013-02-12 21:05:00,43.7,35.6,30.26,NW,325,2.0,4.0,73,0.00,,,0.00,0,HR-IXPWINDi_r2_v1.2.,2013-02-13 05:05:00,
2013-02-12 21:10:00,43.3,35.2,30.26,NW,312,1.0,3.0,73,0.00,,,0.00,0,HR-IXPWINDi_r2_v1.2.,2013-02-13 05:10:00,
2013-02-12 21:15:00,42.8,35.1,30.26,NW,313,2.0,3.0,74,0.00,,,0.00,0,HR-IXPWINDi_r2_v1.2.,2013-02-13 05:15:00,
2013-02-12 21:20:00,42.6,35.2,30.27,NW,313,0.0,3.0,75,0.00,,,0.00,0,HR-IXPWINDi_r2_v1.2.,2013-02-13 05:20:00,
2013-02-12 21:26:00,42.0,35.3,30.27,NNW,331,2.0,4.0,77,0.00,,,0.00,0,HR-IXPWINDi_r2_v1.2.,2013-02-13 05:26:00,
2013-02-12 21:31:00,42.0,35.3,30.27,NNW,338,1.0,4.0,77,0.00,,,0.00,0,HR-IXPWINDi_r2_v1.2.,2013-02-13 05:31:00,
2013-02-12 21:36:00,41.9,35.2,30.27,NNW,333,0.0,3.0,77,0.00,,,0.00,0,HR-IXPWINDi_r2_v1.2.,2013-02-13 05:36:00,
2013-02-12 21:41:00,41.8,35.1,30.27,NW,325,2.0,4.0,77,0.00,,,0.00,0,HR-IXPWINDi_r2_v1.2.,2013-02-13 05:41:00,
2013-02-12 21:46:00,42.2,35.1,30.27,NNW,344,1.0,4.0,76,0.00,,,0.00,0,HR-IXPWINDi_r2_v1.2.,2013-02-13 05:46:00,
2013-02-12 21:52:00,41.9,35.2,30.27,NNW,340,1.0,4.0,77,0.00,,,0.00,0,HR-IXPWINDi_r2_v1.2.,2013-02-13 05:52:00,
2013-02-12 21:57:00,41.5,34.8,30.27,NNW,342,1.0,3.0,77,0.00,,,0.00,0,HR-IXPWINDi_r2_v1.2.,2013-02-13 05:57:00,
2013-02-12 22:02:00,41.4,35.0,30.27,NNW,339,1.0,3.0,78,0.00,,,0.00,0,HR-IXPWINDi_r2_v1.2.,2013-02-13 06:02:00,
2013-02-12 22:08:00,41.3,34.9,30.27,NNW,328,1.0,4.0,78,0.00,,,0.00,0,HR-IXPWINDi_r2_v1.2.,2013-02-13 06:08:00,
2013-02-12 22:13:00,41.6,35.2,30.26,NNW,329,3.0,4.0,78,0.00,,,0.00,0,HR-IXPWINDi_r2_v1.2.,2013-02-13 06:13:00,
2013-02-12 22:18:00,41.9,35.2,30.26,WNW,288,1.0,4.0,77,0.00,,,0.00,0,HR-IXPWINDi_r2_v1.2.,2013-02-13 06:18:00,
2013-02-12 22:23:00,41.7,35.0,30.26,NW,304,1.0,4.0,77,0.00,,,0.00,0,HR-IXPWINDi_r2_v1.2.,2013-02-13 06:23:00,
2013-02-12 22:29:00,41.4,34.7,30.26,NW,304,1.0,3.0,77,0.00,,,0.00,0,HR-IXPWINDi_r2_v1.2.,2013-02-13 06:29:00,
2013-02-12 22:34:00,40.7,34.7,30.26,NW,304,1.0,2.0,79,0.00,,,0.00,0,HR-IXPWINDi_r2_v1.2.,2013-02-13 06:34:00,
2013-02-12 22:39:00,40.7,34.7,30.26,NW,304,2.0,3.0,79,0.00,,,0.00,0,HR-IXPWINDi_r2_v1.2.,2013-02-13 06:39:00,
2013-02-12 22:44:00,41.0,34.6,30.26,NW,305,1.0,3.0,78,0.00,,,0.00,0,HR-IXPWINDi_r2_v1.2.,2013-02-13 06:44:00,
2013-02-12 22:49:00,40.7,34.3,30.26,NW,305,1.0,3.0,78,0.00,,,0.00,0,HR-IXPWINDi_r2_v1.2.,2013-02-13 06:49:00,
2013-02-12 22:55:00,40.5,34.5,30.26,NW,306,1.0,2.0,79,0.00,,,0.00,0,HR-IXPWINDi_r2_v1.2.,2013-02-13 06:55:00,
2013-02-12 23:00:00,40.1,34.4,30.26,NW,309,1.0,2.0,80,0.00,,,0.00,0,HR-IXPWINDi_r2_v1.2.,2013-02-13 07:00:00,
2013-02-12 23:05:00,40.1,34.4,30.26,NW,309,1.0,2.0,80,0.00,,,0.00,0,HR-IXPWINDi_r2_v1.2.,2013-02-13 07:05:00,
2013-02-12 23:10:00,39.8,34.4,30.26,NW,309,1.0,2.0,81,0.00,,,0.00,0,HR-IXPWINDi_r2_v1.2.,2013-02-13 07:10:00,
2013-02-12 23:15:00,39.4,34.0,30.26,NW,309,0.0,2.0,81,0.00,,,0.00,0,HR-IXPWINDi_r2_v1.2.,2013-02-13 07:15:00,
2013-02-12 23:21:00,38.7,33.9,30.26,NW,309,1.0,1.0,83,0.00,,,0.00,0,HR-IXPWINDi_r2_v1.2.,2013-02-13 07:21:00,
2013-02-12 23:26:00,38.2,33.8,30.26,NW,309,0.0,1.0,84,0.00,,,0.00,0,HR-IXPWINDi_r2_v1.2.,2013-02-13 07:26:00,
2013-02-12 23:31:00,37.7,33.6,30.26,NW,309,1.0,2.0,85,0.00,,,0.00,0,HR-IXPWINDi_r2_v1.2.,2013-02-13 07:31:00,
2013-02-12 23:36:00,37.5,33.7,30.26,NW,309,0.0,2.0,86,0.00,,,0.00,0,HR-IXPWINDi_r2_v1.2.,2013-02-13 07:36:00,
2013-02-12 23:41:00,37.3,33.8,30.26,NW,309,1.0,3.0,87,0.00,,,0.00,0,HR-IXPWINDi_r2_v1.2.,2013-02-13 07:41:00,
2013-02-12 23:47:00,37.4,33.8,30.26,NW,309,2.0,3.0,87,0.00,,,0.00,0,HR-IXPWINDi_r2_v1.2.,2013-02-13 07:47:00,
2013-02-12 23:52:00,37.4,33.8,30.25,NW,309,1.0,3.0,87,0.00,,,0.00,0,HR-IXPWINDi_r2_v1.2.,2013-02-13 07:52:00,
2013-02-12 23:57:00,37.5,33.9,30.25,NW,309,2.0,3.0,87,0.00,,,0.00,0,HR-IXPWINDi_r2_v1.2.,2013-02-13 07:57:00,